Terug naar catalogus

FENGYUN 1C DEB

ActiefSSO
NORAD 31758·DEBRIS·🇨🇳 China

Gelanceerd May 10, 1999 vanaf Taiyuan Satellite Launch Center

Loading…

Volgende Passages (komende 24 uur)

TLE

VersSource: Space-Track

Epoch: Sep 12, 2026, 23:03 UTC

1 31758U 99025CFH 26255.96064709  .00011068  00000-0  16900-2 0  9994
2 31758  98.0594 256.9508 0292686 329.7282  28.7279 14.49035451981630

Volg FENGYUN 1C DEB in realtime met AllMySat

Download on the App Store